Lapse_Rate
6.3 6.4 6.5 6.4 6.4 6.4 6.5 6.6 6.6 6.7 6.8 6.9 7.2 7.3 7.4 7.2 7.4 7.4 7.5 7.6 7.6 7.9 8.1 8.0 7.7 7.6 7.9 7.4 7.4 7.4 7.9 8.3 8.4 8.0 8.3 7.6 7.7 7.7 8.0 7.5 7.7 7.7 7.5 7.4 7.4
6.5 6.5 6.5 6.4 6.4 6.4 6.5 6.6 6.6 6.8 6.8 6.9 7.2 7.4 7.4 7.5 7.4 7.4 7.6 7.7 7.7 7.9 8.1 8.1 7.8 7.6 7.4 7.8 7.6 7.1 7.6 8.0 7.7 7.4 7.4 7.2 7.5 7.3 7.7 7.5 7.3 7.4 7.5 7.5 7.4
6.5 6.6 6.4 6.3 6.3 6.4 6.4 6.5 6.5 6.7 6.8 6.9 7.1 7.3 7.4 7.4 7.4 7.5 7.6 7.7 7.8 7.9 8.0 8.1 7.9 7.6 7.4 7.6 7.6 7.6 7.7 7.2 7.2 7.4 7.1 7.0 7.4 7.3 7.5 7.5 7.4 7.0 6.7 7.1 7.2
6.5 6.6 6.5 6.5 6.3 6.3 6.3 6.4 6.4 6.6 6.9 6.9 7.0 7.2 7.2 7.2 7.1 7.3 7.5 7.6 7.7 7.8 8.0 8.0 7.8 7.5 7.3 7.2 7.5 7.7 7.7 7.9 7.3 7.3 7.2 7.4 7.2 7.0 7.1 7.3 6.6 7.0 6.9 6.7 6.8
6.5 6.5 6.5 6.5 6.3 6.1 6.2 6.3 6.4 6.5 6.8 6.8 6.9 7.1 7.0 6.8 7.1 7.4 7.4 7.5 7.6 7.8 7.9 7.8 7.6 7.2 7.2 7.0 7.4 7.5 6.7 7.0 7.1 7.4 7.3 6.7 6.6 6.9 6.8 6.4 6.7 6.7 6.8 6.7 6.6
6.4 6.4 6.4 6.4 6.3 6.1 6.0 6.1 6.2 6.4 6.5 6.6 6.8 6.8 6.8 6.5 7.1 7.2 7.1 7.3 7.4 7.6 7.8 7.6 7.4 7.4 6.8 6.8 7.1 6.8 6.9 6.7 6.5 6.6 6.4 6.4 6.5 6.2 6.4 6.5 6.5 6.6 6.4 6.5 6.7
6.5 6.4 6.4 6.4 6.2 6.1 5.9 5.9 6.0 6.1 6.2 6.4 6.5 6.6 6.4 6.5 6.7 6.8 7.0 7.0 7.2 7.4 7.4 7.4 7.3 7.2 6.7 6.4 6.9 6.8 6.9 6.6 6.4 6.2 6.2 6.3 6.4 6.2 6.1 6.3 6.6 6.6 6.4 6.5 6.4
6.5 6.5 6.3 6.2 6.2 6.0 5.8 5.7 5.7 5.7 6.0 6.2 6.3 6.4 6.1 6.5 6.5 6.5 6.6 6.8 6.9 7.1 7.2 7.1 7.2 7.1 6.8 6.7 6.6 6.7 6.6 7.3 6.6 6.2 5.9 6.0 7.3 6.4 6.2 6.3 6.5 6.0 5.9 6.2 6.2
6.6 6.5 6.3 6.1 6.0 5.9 5.7 5.5 5.5 5.6 5.8 6.0 6.1 6.1 6.1 6.4 6.3 6.5 6.5 6.6 6.8 6.9 6.9 7.1 7.1 6.7 7.0 6.7 6.9 6.7 7.7 7.3 6.9 5.9 5.8 5.9 7.0 6.0 6.0 6.2 6.2 6.0 5.9 5.9 6.1
6.7 6.6 6.4 6.1 5.9 5.8 5.6 5.5 5.5 5.6 5.6 5.7 5.9 6.1 6.0 5.9 6.0 6.1 6.3 6.5 6.4 6.6 6.8 6.9 6.6 6.9 6.8 7.0 8.1 7.8 7.3 6.9 6.9 6.2 5.8 6.1 6.2 6.3 5.6 6.2 6.3 6.5 6.6 6.7 6.7
6.7 6.6 6.5 6.2 5.9 5.7 5.7 5.7 5.6 5.7 5.7 5.7 5.7 6.0 6.0 6.0 6.2 6.1 6.3 6.5 6.5 6.3 6.8 6.5 7.1 7.5 7.0 6.6 6.5 6.6 6.7 6.8 6.4 5.7 5.7 6.3 6.0 6.1 5.7 6.4 6.5 6.7 6.9 6.9 6.7
6.6 6.5 6.4 6.1 5.9 5.8 5.8 5.8 5.8 5.9 5.6 5.8 5.8 5.8 5.9 6.0 5.9 6.1 6.3 6.0 6.1 6.6 6.3 6.7 7.0 6.3 6.3 6.1 6.3 6.4 6.6 6.9 6.2 5.6 5.4 6.1 6.0 6.2 5.9 6.4 6.8 6.7 6.5 6.6 6.7
6.5 6.4 6.3 6.2 6.0 5.9 5.9 5.9 6.0 6.1 6.0 5.9 5.9 5.8 5.8 5.9 5.8 5.9 5.8 6.0 6.2 6.4 6.5 7.0 6.4 6.4 6.3 6.3 6.6 6.6 6.6 6.4 6.1 5.8 6.3 5.8 7.0 6.4 6.2 6.7 6.6 6.5 6.7 6.8 6.9
6.5 6.4 6.3 6.2 6.1 6.0 6.0 6.0 6.0 6.2 6.6 6.1 6.1 6.1 6.1 6.0 6.0 6.1 6.1 6.0 6.1 6.3 6.3 6.4 6.1 6.2 6.5 6.6 6.5 7.0 6.1 6.0 6.1 6.2 7.3 6.1 7.3 7.3 6.5 6.3 6.7 6.9 6.9 6.9 6.9
6.6 6.4 6.3 6.4 6.3 6.1 6.0 6.0 6.1 6.2 7.6 6.1 6.2 6.2 6.3 6.4 6.2 6.1 6.2 6.1 6.3 6.2 6.5 6.3 6.2 6.3 6.6 6.3 6.2 6.5 6.1 6.0 6.1 6.3 6.3 7.4 6.8 8.2 6.9 6.9 6.7 6.4 6.9 6.9 6.7
6.6 6.5 6.4 6.3 6.3 6.3 6.2 6.1 6.1 6.3 6.9 6.4 6.2 6.3 6.5 6.4 6.3 6.4 6.4 6.6 6.6 6.5 6.5 6.3 6.5 6.2 6.3 6.3 6.3 6.3 6.4 6.7 6.6 7.0 8.0 7.3 7.1 9.0 7.9 7.3 7.3 6.7 6.6 6.9 6.7
6.6 6.6 6.6 6.4 6.4 6.4 6.3 6.2 6.3 7.2 6.4 6.5 6.5 6.5 6.6 6.6 6.6 6.6 6.6 6.6 6.9 7.2 7.0 6.7 6.5 6.3 6.4 6.8 6.5 6.7 7.1 8.2 8.6 9.1 9.5 7.0 7.2 8.2 7.8 7.4 7.3 7.3 6.8 6.9 6.9
6.6 6.6 6.7 6.6 6.4 6.3 6.2 6.1 7.0 6.4 6.6 6.6 6.8 6.7 6.9 6.8 6.8 6.7 6.9 7.1 6.7 6.8 7.2 7.5 7.3 6.7 6.6 6.6 6.9 7.0 7.1 8.1 8.1 9.1 9.2 8.3 7.9 8.6 7.1 7.2 7.2 7.0 7.1 6.7 6.6
6.6 6.6 6.7 6.8 6.5 6.4 6.3 6.8 6.6 6.5 6.4 6.6 6.8 7.2 6.9 6.7 6.9 6.9 6.8 6.9 6.6 6.6 7.0 7.4 7.4 6.7 6.8 6.6 6.8 7.3 7.8 7.2 7.5 8.1 7.9 8.5 8.4 7.9 7.4 7.0 6.8 6.8 6.7 6.8 6.4
6.6 6.6 6.7 6.8 6.6 6.4 6.4 6.5 6.2 6.5 6.6 6.8 7.1 6.9 7.1 6.8 7.0 7.0 6.9 6.2 6.2 6.3 6.4 6.6 7.2 6.9 6.6 6.7 6.8 6.9 7.0 7.5 7.7 7.3 8.1 8.8 8.7 9.5 8.3 6.8 6.4 6.5 6.5 6.5 6.3
6.8 6.4 6.7 6.7 6.6 6.4 6.7 6.4 6.2 6.5 6.6 6.5 6.5 6.6 6.5 6.6 6.6 6.7 6.6 6.0 6.2 5.9 6.1 6.2 6.3 7.0 6.8 7.3 7.3 7.2 7.4 7.0 7.0 7.6 8.3 8.2 8.5 7.6 7.4 7.4 6.3 6.7 5.8 5.6 5.5
6.8 6.3 6.8 6.7 6.5 6.5 6.6 6.7 6.6 6.4 6.4 6.4 6.4 6.3 6.4 6.4 6.6 6.7 6.7 6.1 6.3 6.1 6.1 6.0 6.1 6.7 7.2 6.8 6.5 6.4 6.9 7.1 7.2 7.2 7.3 6.8 6.2 7.5 7.5 7.4 7.3 6.6 5.9 5.9 5.7
6.8 6.8 7.0 6.8 6.8 6.5 6.6 6.6 6.6 6.4 6.5 6.3 6.3 6.3 6.3 6.2 6.4 6.3 6.1 6.2 6.0 5.8 5.8 5.8 6.3 6.4 7.1 6.6 6.1 6.4 6.2 6.6 6.7 6.4 6.1 7.1 6.6 7.9 7.7 7.9 7.5 6.6 6.2 5.8 5.8
6.8 6.5 6.9 6.9 6.9 6.7 6.5 6.4 6.3 6.4 6.4 6.4 6.3 6.3 6.1 6.2 6.1 6.2 6.2 5.8 6.0 6.0 6.2 6.1 6.1 6.5 7.0 7.4 7.0 6.7 6.9 6.9 6.7 6.1 6.3 6.6 6.8 7.1 7.3 7.1 6.9 6.7 6.4 6.2 6.2
6.9 7.1 7.0 6.9 6.9 6.8 6.7 6.6 6.2 6.2 6.3 6.3 6.1 6.1 6.0 6.1 6.2 6.3 5.9 5.9 5.7 6.4 6.2 5.7 6.0 6.4 6.5 6.4 6.3 6.5 6.7 6.7 6.7 6.9 6.8 6.6 7.4 7.5 7.4 7.1 6.6 6.4 6.1 5.9 5.9
7.0 7.1 7.2 7.1 7.0 6.9 6.8 6.6 6.4 6.3 6.2 5.8 5.9 6.1 6.1 5.8 5.7 5.7 5.6 5.7 5.7 5.4 5.4 5.3 5.8 5.7 6.1 6.5 6.3 6.4 6.6 6.4 6.5 6.6 7.0 7.3 7.4 7.8 7.0 6.5 6.2 6.0 5.9 5.8 5.7
7.1 7.1 7.0 6.9 6.7 6.5 6.6 6.6 6.5 6.4 6.3 6.2 6.1 6.0 5.5 5.5 6.0 6.0 6.1 6.1 6.1 5.7 5.3 5.3 5.3 5.1 6.2 6.1 6.0 6.4 6.5 6.6 6.5 6.8 7.0 6.9 7.1 6.7 6.4 5.8 5.6 5.4 5.5 5.8 5.6
Wind_Speed
15 15 14 12 11 10 9 9 9 10 10 10 8 7 8 11 13 8 7 4 2 3 3 4 6 6 7 4 5 1 8 9 8 7 6 0 5 2 1 0 3 3 5 6 5
16 15 14 13 12 11 10 9 8 9 8 8 7 7 7 9 8 7 7 4 2 3 7 8 7 8 6 3 2 7 8 7 6 9 9 3 7 4 5 4 4 5 5 4 3
17 16 15 14 12 11 10 9 8 8 6 6 6 8 6 9 7 5 6 5 4 6 2 3 4 6 8 6 5 4 12 5 5 7 6 7 8 6 9 10 7 6 1 2 2
19 17 16 14 13 12 11 9 8 7 5 4 5 5 7 7 2 6 8 7 5 3 6 6 6 8 8 8 5 6 5 4 4 6 9 13 11 11 11 11 6 4 4 3 4
19 18 17 15 13 12 10 9 8 6 5 4 4 4 5 5 10 8 8 7 5 4 6 6 8 5 10 4 7 10 8 8 6 8 11 12 14 15 11 4 6 5 5 6 6
20 18 17 15 13 12 10 9 8 6 4 3 4 4 6 9 3 6 5 4 2 6 6 4 2 1 3 4 9 2 5 7 6 8 8 10 12 5 6 4 5 5 6 6 5
21 19 18 15 13 12 11 10 8 5 4 4 4 4 4 8 1 4 5 2 1 1 6 5 3 6 3 5 2 5 10 9 6 5 4 7 14 16 1 4 6 8 7 5 3
22 20 18 16 14 12 12 10 7 5 4 4 5 5 5 3 1 4 4 4 2 2 2 2 1 3 5 3 5 9 7 12 11 8 4 5 12 9 2 5 8 8 8 6 5
22 20 17 16 14 13 12 7 5 5 5 6 5 7 8 7 5 4 2 1 4 4 3 2 3 0 7 11 9 9 10 7 8 2 2 8 10 12 3 7 9 10 9 8 9
22 19 17 15 13 12 7 2 7 7 5 5 4 5 3 6 4 1 2 2 4 6 6 7 5 7 5 8 8 5 9 5 6 6 5 11 13 12 5 8 9 9 8 7 5
23 20 17 14 11 7 2 4 5 5 4 6 5 3 4 3 3 1 2 4 4 6 5 4 8 3 5 2 2 1 3 5 1 2 9 7 10 14 7 9 9 5 5 1 2
24 20 17 15 9 5 5 2 4 4 3 3 1 1 0 2 2 4 2 4 6 4 5 7 3 2 2 3 3 3 4 5 4 3 10 12 15 13 6 6 4 2 2 4 5
25 21 18 15 8 4 8 6 6 4 2 5 2 2 2 2 5 8 2 1 2 2 1 5 7 3 4 6 6 2 7 5 8 11 15 11 16 6 7 5 4 3 2 4 6
27 23 18 14 1 1 2 8 4 4 5 4 4 4 3 0 4 4 4 3 2 3 1 3 3 0 5 3 6 9 3 6 8 10 9 5 7 9 6 7 5 5 5 6 7
28 22 17 6 2 1 5 8 1 3 3 3 5 2 1 2 2 4 4 1 6 5 6 7 1 3 6 4 3 5 4 7 10 13 8 11 7 4 2 9 7 6 6 6 6
29 22 13 3 1 4 7 3 4 6 3 5 2 1 5 2 3 3 2 3 2 1 4 5 3 4 4 2 3 3 8 13 9 8 10 5 5 4 2 3 3 6 7 7 7
29 19 7 3 4 8 4 4 5 3 3 4 1 1 3 3 4 2 4 6 6 3 4 3 5 5 6 5 4 5 9 6 5 7 6 4 7 10 6 3 6 5 9 8 6
29 10 1 4 5 5 4 5 3 2 3 3 0 5 2 2 4 2 2 2 6 5 1 3 7 0 5 5 6 4 5 5 7 8 13 4 6 5 5 3 5 5 5 7 7
24 2 1 8 4 4 6 3 3 2 2 0 3 3 4 3 2 3 3 3 5 8 5 4 3 1 3 1 5 4 4 6 10 16 9 10 9 9 3 1 4 6 7 7 5
3 3 4 13 4 4 5 4 3 2 2 1 1 3 1 2 3 2 1 4 3 5 5 3 5 3 2 3 5 5 5 5 5 5 11 11 18 13 8 6 8 9 13 12 13
3 3 6 8 4 4 1 4 5 5 1 3 2 2 2 1 2 0 2 5 4 3 4 4 2 5 4 5 9 6 6 4 5 7 9 13 7 8 1 5 4 8 14 16 16
3 2 6 5 3 1 3 2 1 1 1 2 3 3 1 1 1 1 1 4 3 4 4 4 4 8 11 10 4 8 10 8 7 11 8 10 13 13 9 7 9 17 13 18 18
3 3 4 5 1 4 4 4 5 2 4 1 2 3 0 1 1 1 1 7 5 4 3 2 2 6 5 6 5 5 1 8 10 8 14 14 15 13 24 20 20 18 16 15 19
3 1 4 5 3 3 2 2 3 6 5 3 2 1 2 3 1 2 2 3 3 4 2 3 8 10 9 13 12 15 16 15 15 5 19 19 28 24 21 21 19 17 18 20 20
4 4 3 3 5 5 1 0 2 2 2 2 2 0 1 2 4 4 1 5 2 2 3 3 7 10 13 14 13 16 18 17 17 20 18 23 24 24 22 17 18 19 19 20 21
4 3 2 3 2 1 0 2 0 2 3 1 3 0 1 3 3 8 4 4 4 3 2 3 7 7 14 14 10 15 16 16 18 18 20 22 23 16 19 21 20 19 22 23 24
3 1 4 1 0 3 3 1 1 2 2 3 2 4 5 4 5 7 7 8 10 10 8 5 2 3 6 2 13 14 5 6 10 13 15 16 19 19 20 18 20 25 26 26 25
Wind_Direction
351 345 341 338 334 330 325 318 312 307 295 294 299 301 308 300 291 215 219 62 92 138 253 196 201 204 188 163 258 352 248 249 264 272 269 210 261 78 100 322 72 65 62 81 92
350 343 339 335 333 327 321 315 308 300 288 278 279 280 285 298 255 216 94 138 172 239 223 203 185 189 190 165 170 229 244 269 308 312 279 297 289 318 265 219 168 153 115 113 132
348 342 338 336 331 325 321 313 306 300 288 269 265 275 279 293 243 80 135 163 186 252 245 225 183 221 219 208 170 201 253 207 257 257 255 279 258 255 269 256 254 272 146 144 216
347 341 338 335 331 325 321 316 312 307 296 252 249 265 288 251 146 90 143 165 190 263 198 177 200 209 233 212 184 209 262 234 256 247 264 258 278 256 258 277 19 321 331 287 257
347 341 338 334 331 326 322 317 311 301 296 255 250 261 254 184 96 120 151 177 204 195 188 193 205 210 224 206 195 231 177 212 229 254 262 270 259 266 267 280 298 289 251 266 263
347 343 338 335 330 326 320 313 306 296 279 245 247 258 250 108 58 145 173 190 156 162 145 179 156 224 168 208 239 111 230 228 231 247 238 252 247 235 208 301 265 272 263 240 267
347 344 338 334 330 325 317 309 302 285 254 235 233 264 255 86 88 180 203 44 84 79 110 78 83 228 164 174 174 216 240 201 217 229 206 260 250 225 110 261 266 253 249 243 212
345 342 338 334 330 323 313 301 285 261 232 221 233 253 85 117 156 196 187 156 137 163 50 94 10 120 251 118 194 227 236 235 135 209 152 214 275 116 186 291 268 251 250 257 255
345 341 339 335 330 325 317 275 241 213 212 209 234 257 116 139 183 93 311 125 144 146 113 173 240 214 182 214 214 208 260 214 153 142 244 232 296 139 300 302 284 276 273 274 271
346 341 337 334 331 333 354 182 166 178 210 235 257 230 145 81 70 48 94 251 193 173 177 206 205 209 197 214 248 216 231 206 257 124 274 269 258 277 301 294 289 289 287 280 282
347 342 335 330 329 318 251 172 208 179 205 20 46 60 116 112 215 130 345 189 196 219 205 192 223 209 60 315 343 253 253 278 269 47 310 276 280 279 284 267 262 289 298 282 24
347 342 336 329 322 286 256 11 37 3 123 82 19 261 247 331 131 79 237 214 211 144 180 199 105 57 169 172 216 241 265 264 272 293 308 298 289 281 244 257 274 276 111 112 111
345 341 334 327 305 256 64 32 316 245 235 108 64 49 74 243 55 51 340 151 88 152 351 344 51 126 205 185 234 240 314 329 315 315 274 292 277 170 182 207 173 155 119 100 105
344 339 333 334 218 64 81 345 323 213 205 101 144 102 194 191 84 11 14 329 171 39 57 54 80 10 211 220 286 287 56 300 299 310 307 8 294 213 187 208 207 170 168 141 131
342 337 329 343 17 265 0 328 284 243 195 119 101 43 183 344 106 86 16 248 49 69 263 82 193 238 237 28 301 11 322 297 297 288 304 234 256 129 162 235 198 199 175 162 152
340 334 325 246 230 23 319 283 231 232 116 141 133 148 182 155 92 120 92 59 8 59 48 78 101 16 36 93 20 323 271 265 270 269 249 69 286 287 102 305 214 186 190 175 167
338 330 325 308 355 333 305 212 221 299 163 118 75 256 100 92 123 13 61 49 14 267 68 151 97 103 12 262 192 283 291 296 250 217 301 68 286 276 328 308 305 245 202 197 182
333 321 150 30 322 308 245 230 253 98 61 100 15 111 108 342 90 97 190 118 56 346 320 317 170 313 0 336 327 332 327 307 297 318 315 249 270 58 60 21 352 306 261 213 210
323 191 354 359 319 277 247 248 56 77 33 3 161 235 128 105 323 225 50 41 39 12 1 319 129 116 53 303 308 93 278 4 287 266 266 268 276 264 195 5 52 15 334 294 255
291 236 44 340 306 248 243 64 109 57 344 274 243 317 202 39 241 288 164 30 90 28 343 60 290 98 114 241 198 299 358 252 222 289 295 289 300 288 167 57 7 12 4 359 347
245 230 37 346 248 231 254 88 115 60 329 345 89 117 74 33 325 47 69 94 18 51 8 333 266 138 249 232 323 279 237 222 316 293 277 296 290 55 41 309 334 339 349 338 332
301 221 21 325 213 11 111 41 292 68 70 95 69 65 31 33 348 204 168 46 49 4 336 46 305 282 294 326 308 269 283 281 257 272 245 284 277 286 5 335 275 318 327 320 318
2 3 34 307 193 123 122 109 53 30 44 25 108 4 1 64 14 275 36 127 44 355 4 9 234 303 292 164 178 241 263 280 272 282 255 266 267 295 306 302 325 321 316 311 317
297 195 59 57 47 23 133 120 131 41 71 50 91 215 223 226 318 289 242 120 352 336 347 228 248 251 262 294 316 285 270 266 263 225 271 267 288 299 305 315 323 333 322 310 316
356 61 2 36 57 60 327 343 182 130 54 28 158 287 312 311 302 280 270 297 244 101 165 308 270 280 279 284 281 276 276 277 270 269 267 282 281 298 306 333 328 320 325 316 305
9 336 148 81 330 281 75 81 19 100 329 155 269 180 250 257 221 287 309 285 292 141 311 296 277 297 291 275 275 280 281 279 271 275 277 282 286 312 327 320 320 317 316 311 302
39 114 290 114 63 267 49 55 69 320 97 20 351 292 269 352 332 318 302 287 280 283 283 263 280 291 274 339 296 281 296 274 305 296 287 285 300 314 312 321 319 316 314 309 305